Find Starlink 31706

NORAD ID: 59437 Int'l Des: 2024-065 Owner: SPXS Country: US Constellation: starlink operational
LEOCIRCULAR

Current View

Loading 3D Globe...

About Starlink 31706

Starlink 31706 (NORAD 59437) is a starlink constellation satellite (v2 mini) launched Apr 7, 2024 by SPXS of US. It operates in LEO, CIRCULAR orbit with a mass of 730.00 kg.

About Starlink 31706

Description loading...

Upcoming Passes

Passes for default location (London). Set your location on the main map for personalized predictions.

Altitude History

Loading altitude history...

Two-Line Element Set

1 59437U 24065S 26171.36878992 .00000667 00000-0 34649-4 0 9993
2 59437 53.1591 166.6239 0001364 70.9538 289.1610 15.30201058124620
Epoch: Jun 20, 2026 • Age: 19 hours

Current Status

Altitude 485.7 km
Velocity 7.62 km/s
Sub-Earth Point -32.49°S, 173.16°E
Launch Date Apr 7, 2024
Age 2.2 years
Type internet

Technical Details

Classification Payload
Mass 730.00 kg
Dry Mass 700.00 kg
Total Mass 730.00 kg
Length 0.30 m
Diameter 4.10 m
Span 29.00 m
Shape Box + pan
Manufacturer SPXS
Bus Type Starlink V2M
Phase Status In Orbit
Owner/State SPXS/US

Most Searched